Regional Weather Roundup
Issued by NWS

Home | Current Version | Previous Version | Graphics & Text | Print | Product List | Glossary On
Versions: 1 2 3 4 5 6 7 8 9 10 11 12 13 14 15 16 17 18 19 20 21 22 23 24 25 26 27 28 29 30 31 32 33 34 35 36 37 38 39 40 41 42 43 44 45 46 47 48 49 50
000
ASUS45 KCYS 251610
RWRWY

WYOMING REGIONAL WEATHER ROUNDUP
NATIONAL WEATHER SERVICE CHEYENNE WY
1000 AM MDT TUE JUL 25 2017

NOTE:  "FAIR" INDICATES FEW OR NO CLOUDS BELOW 12,000 FEET
WITH NO SIGNIFICANT WEATHER AND/OR OBSTRUCTIONS TO VISIBILITY.

WYZ001-251700-
YELLOWSTONE NATIONAL PARK

CITY           SKY/WX    TMP DP  RH WIND       PRES   REMARKS
LK YELLOWSTONE   N/A     57  51  80 CALM      30.34R
W YELLOWSTONE  NOT AVBL

$$
WYZ002>013-054>058-071-098>099-251700-
NORTHERN WYOMING

CITY           SKY/WX    TMP DP  RH WIND       PRES   REMARKS
JACKSON        CLOUDY    61  45  55 CALM      30.25R
CODY           FAIR      64  44  48 NE14      30.18R
GREYBULL       FAIR      72  32  23 NW20      30.07R
WORLAND        FAIR      75  47  36 N8        30.08R
SHERIDAN       FAIR      72  46  39 NW20G26   30.12R
BUFFALO        FAIR      72  46  39 N17G25    30.15R
GILLETTE       FAIR      79  50  36 N13       30.07R
HULETT         FAIR      81  52  36 N8G17     30.07R
NEWCASTLE      FAIR      82  43  24 SW7       30.02R

$$
WYZ014>020-022>026-101>103-251700-
CENTRAL WYOMING

CITY           SKY/WX    TMP DP  RH WIND       PRES   REMARKS
BIG PINEY      PTSUNNY   67  45  45 E5        30.25S
PINEDALE       CLOUDY    64  43  45 MISG      30.27S
DUBOIS         CLOUDY    64  36  34 CALM      30.27S
LANDER         PTSUNNY   70  43  37 CALM      30.15R
RIVERTON       PTSUNNY   68  48  48 S7        30.15R
CASPER         FAIR      75  45  34 SW7       30.14R
DOUGLAS        FAIR      74  49  41 NW7       30.08S

$$
WYZ021-027>030-104>119-251700-
SOUTHERN WYOMING

CITY           SKY/WX    TMP DP  RH WIND       PRES   REMARKS
EVANSTON       CLOUDY    58  56  93 W8        30.29S
KEMMERER         N/A     64  46  52 W15       30.28S
FORT BRIDGER   CLOUDY    64  52  64 W12       30.30R
ROCK SPRINGS   LGT RAIN  66  51  58 SE5       30.25S
RAWLINS        PTSUNNY   68  50  52 SW16G22   30.26R
SARATOGA       FAIR      70  52  52 N7        30.28R
LARAMIE        FAIR      70  48  45 NE7       30.26R
CHEYENNE       FAIR      81  45  28 N13G21    30.15R
TORRINGTON     FAIR      79  50  36 W7        30.00R
PINE BLUFFS    FAIR      86  43  22 N9        30.08S

$$



USA.gov is the U.S. government's official web portal to all federal, state and local government web resources and services.